Elizabethton, TN

5:27 PM EST on December 06, 2016 (GMT -0500)
Elizabethton

Weather History for K0A9 - September, 2013

Change the Weather History Date:

Saturday, September 21, 2013

  Actual Average (KTRI) Record (KTRI)
Temperature  
Mean Temperature 63 °F 65 °F  
Max Temperature 66 °F 77 °F 93 °F (1955)
Min Temperature 60 °F 53 °F 39 °F (1956)
Degree Days  
Heating Degree Days 2 2  
Month to date heating degree days 17  
Since 1 July heating degree days 18  
Cooling Degree Days 0 3  
Month to date cooling degree days 100  
Year to date cooling degree days 952  
Growing Degree Days 13 (Base 50)    
Moisture  
Dew Point 61 °F    
Average Humidity 96    
Maximum Humidity 100    
Minimum Humidity 88    
Precipitation  
Precipitation 0.00 in 0.10 in 1.00 in (1967)
Month to date precipitation 2.18  
Year to date precipitation 31.63  
Snow  
Snow 0.00 in 0.00 in - ()
Month to date snowfall 0.0  
Since 1 July snowfall 0.0  
Since 1 September snowfall 0.0  
Snow Depth -    
Sea Level Pressure  
Sea Level Pressure 29.84 in    
Wind  
Wind Speed 2 mph (NE)    
Max Wind Speed 10 mph    
Max Gust Speed -    
Visibility 8 miles    
Events Rain    
T = Trace of Precipitation, MM = Missing Value Source: NWS Daily Summary

Daily Weather History Graph

Daily Weather History Graph

Search for Another Location

Airport or City:

Trip Planner

Search our weather history database for the weather conditions in past years. The results will help you decide how hot, cold, wet, or windy it might be!

Date:

Astronomy

Sep. 21, 2013 Rise Set
Actual Time 7:16 AM EDT 7:26 PM EDT
Civil Twilight 6:50 AM EDT 7:52 PM EDT
Nautical Twilight 6:20 AM EDT 8:22 PM EDT
Astronomical Twilight 5:49 AM EDT 8:52 PM EDT
Moon 8:42 PM EDT (9/21) 9:28 AM EDT (9/21)
Length of Visible Light 13h 02m
Length of Day
12h 10m
Waning Gibbous, 94% of the Moon is Illuminated
Sep 21
Waning Gibbous
Sep 26
Last Quarter
Oct 4
New
Oct 11
First Quarter
Oct 18
Full

Hourly Weather History & Observations

Time (EDT) Temp. Dew Point Humidity Pressure Visibility Wind Dir Wind Speed Gust Speed Precip Events Conditions
12:15 AM 62.6 °F 62.6 °F 100% 29.96 in 7.0 mi Calm Calm - N/A   Partly Cloudy
12:35 AM 62.6 °F 62.6 °F 100% 29.96 in 8.0 mi Calm Calm - N/A   Scattered Clouds
12:55 AM 62.6 °F 62.6 °F 100% 29.95 in 6.0 mi Calm Calm - N/A   Clear
1:15 AM 62.6 °F 62.6 °F 100% 29.95 in 6.0 mi Calm Calm - N/A   Clear
1:35 AM 62.6 °F 62.6 °F 100% 29.95 in 6.0 mi Calm Calm - N/A   Clear
1:55 AM 62.6 °F 60.8 °F 94% 29.95 in 7.0 mi ENE 3.5 mph - N/A   Clear
2:15 AM 62.6 °F 62.6 °F 100% 29.94 in 7.0 mi Calm Calm - N/A   Clear
2:35 AM 60.8 °F 60.8 °F 100% 29.94 in 6.0 mi Calm Calm - N/A   Clear
2:55 AM 60.8 °F 60.8 °F 100% 29.93 in 6.0 mi Calm Calm - N/A   Clear
3:15 AM 62.6 °F 62.6 °F 100% 29.92 in 6.0 mi Calm Calm - N/A   Clear
3:35 AM 60.8 °F 60.8 °F 100% 29.91 in 6.0 mi Calm Calm - N/A   Clear
3:55 AM 62.6 °F 62.6 °F 100% 29.90 in 8.0 mi Variable 3.5 mph - N/A   Clear
4:15 AM 62.6 °F 60.8 °F 94% 29.89 in 10.0 mi East 4.6 mph - N/A   Clear
4:35 AM 62.6 °F 60.8 °F 94% 29.88 in 9.0 mi East 5.8 mph - N/A   Clear
4:55 AM 62.6 °F 60.8 °F 94% 29.87 in 10.0 mi East 5.8 mph - N/A   Clear
5:15 AM 62.6 °F 60.8 °F 94% 29.86 in 10.0 mi ENE 6.9 mph - N/A   Clear
5:35 AM 62.6 °F 60.8 °F 94% 29.85 in 10.0 mi ENE 6.9 mph - N/A   Clear
5:55 AM 62.6 °F 60.8 °F 94% 29.85 in 10.0 mi ENE 5.8 mph - N/A   Clear
6:15 AM 62.6 °F 60.8 °F 94% 29.84 in 10.0 mi ENE 4.6 mph - N/A   Clear
6:35 AM 62.6 °F 60.8 °F 94% 29.84 in 10.0 mi ENE 3.5 mph - N/A   Clear
6:55 AM 62.6 °F 60.8 °F 94% 29.84 in 10.0 mi Calm Calm - N/A   Clear
7:15 AM 62.6 °F 60.8 °F 94% 29.84 in 10.0 mi ENE 3.5 mph - N/A   Clear
7:35 AM 62.6 °F 60.8 °F 94% 29.84 in 10.0 mi ENE 3.5 mph - N/A   Clear
7:55 AM 62.6 °F 60.8 °F 94% 29.84 in 10.0 mi Calm Calm - N/A   Partly Cloudy
8:15 AM 62.6 °F 60.8 °F 94% 29.84 in 10.0 mi Calm Calm - N/A   Mostly Cloudy
8:35 AM 64.4 °F 60.8 °F 88% 29.84 in 10.0 mi Calm Calm - N/A   Light Drizzle
8:55 AM 64.4 °F 60.8 °F 88% 29.84 in 10.0 mi Calm Calm - N/A   Light Drizzle
9:15 AM 64.4 °F 62.6 °F 94% 29.83 in 10.0 mi ENE 4.6 mph - N/A   Light Drizzle
9:35 AM 64.4 °F 62.6 °F 94% 29.83 in 5.0 mi Calm Calm - N/A Rain Light Rain
9:55 AM 64.4 °F 62.6 °F 94% 29.83 in 7.0 mi Calm Calm - N/A Rain Light Rain
10:15 AM 66.2 °F 64.4 °F 94% 29.83 in 5.0 mi Calm Calm - N/A Rain Rain
10:35 AM 64.4 °F 62.6 °F 94% 29.82 in 5.0 mi Calm Calm - N/A Rain Rain
10:55 AM 64.4 °F 62.6 °F 94% 29.81 in 5.0 mi East 3.5 mph - N/A Rain Light Rain
11:15 AM 66.2 °F 62.6 °F 88% 29.80 in 7.0 mi NE 5.8 mph - N/A Rain Light Rain
11:35 AM 66.2 °F 62.6 °F 88% 29.80 in 10.0 mi Calm Calm - N/A   Light Drizzle
11:55 AM 64.4 °F 64.4 °F 100% 29.81 in 6.0 mi NW 3.5 mph - N/A Rain Rain
12:15 PM 64.4 °F 64.4 °F 100% 29.82 in 4.0 mi NW 4.6 mph - N/A Rain Rain
12:35 PM 64.4 °F 64.4 °F 100% 29.82 in 4.0 mi NW 3.5 mph - N/A Rain Rain
12:55 PM 64.4 °F 64.4 °F 100% 29.81 in 3.0 mi SSW 4.6 mph - N/A Rain Heavy Rain
1:15 PM 64.4 °F 64.4 °F 100% 29.81 in 5.0 mi WSW 5.8 mph - N/A Rain Rain
1:35 PM 62.6 °F 60.8 °F 94% 29.82 in 4.0 mi NW 10.4 mph - N/A Rain Light Rain
1:55 PM 62.6 °F 60.8 °F 94% 29.82 in 4.0 mi WSW 10.4 mph - N/A Rain Light Rain
2:15 PM 62.6 °F 60.8 °F 94% 29.83 in 5.0 mi SSW 6.9 mph - N/A Rain Rain
2:35 PM 62.6 °F 62.6 °F 100% 29.83 in 4.0 mi SW 5.8 mph - N/A Rain Light Rain
2:55 PM 62.6 °F 60.8 °F 94% 29.82 in 3.0 mi SW 5.8 mph - N/A Rain Light Rain
3:15 PM 62.6 °F 60.8 °F 94% 29.82 in 6.0 mi Calm Calm - N/A Rain Heavy Rain
3:35 PM 62.6 °F 60.8 °F 94% 29.81 in 4.0 mi Calm Calm - N/A Rain Rain
3:55 PM 62.6 °F 60.8 °F 94% 29.81 in 6.0 mi Calm Calm - N/A Rain Light Rain
4:15 PM 62.6 °F 60.8 °F 94% 29.81 in 7.0 mi Calm Calm - N/A Rain Light Rain
4:35 PM 62.6 °F 60.8 °F 94% 29.81 in 9.0 mi Calm Calm - N/A Rain Light Rain
4:55 PM 60.8 °F 60.8 °F 100% 29.79 in 8.0 mi Calm Calm - N/A   Drizzle
5:15 PM 60.8 °F 60.8 °F 100% 29.79 in 10.0 mi Calm Calm - N/A   Light Drizzle
5:35 PM 62.6 °F 60.8 °F 94% 29.79 in 10.0 mi Calm Calm - N/A   Light Drizzle
5:55 PM 62.6 °F 60.8 °F 94% 29.79 in 10.0 mi Calm Calm - N/A   Mostly Cloudy
6:15 PM 62.6 °F 60.8 °F 94% 29.80 in 10.0 mi West 3.5 mph - N/A   Overcast
6:35 PM 62.6 °F 60.8 °F 94% 29.80 in 10.0 mi Calm Calm - N/A   Overcast
6:55 PM 62.6 °F 60.8 °F 94% 29.81 in 10.0 mi West 3.5 mph - N/A   Overcast
7:15 PM 62.6 °F 60.8 °F 94% 29.81 in 10.0 mi Calm Calm - N/A   Overcast
7:35 PM 62.6 °F 60.8 °F 94% 29.81 in 10.0 mi Calm Calm - N/A   Overcast
7:55 PM 62.6 °F 60.8 °F 94% 29.82 in 10.0 mi Calm Calm - N/A   Overcast
8:15 PM 60.8 °F 60.8 °F 100% 29.82 in 10.0 mi Calm Calm - N/A   Overcast
8:35 PM 60.8 °F 60.8 °F 100% 29.82 in 10.0 mi Calm Calm - N/A   Overcast
8:55 PM 60.8 °F 59.0 °F 94% 29.83 in 10.0 mi Calm Calm - N/A   Overcast
9:15 PM 60.8 °F 59.0 °F 94% 29.83 in 10.0 mi Calm Calm - N/A   Overcast
9:35 PM 60.8 °F 60.8 °F 100% 29.84 in 10.0 mi Calm Calm - N/A   Overcast
9:55 PM 60.8 °F 60.8 °F 100% 29.83 in 10.0 mi Calm Calm - N/A   Overcast
10:15 PM 60.8 °F 60.8 °F 100% 29.83 in 10.0 mi Calm Calm - N/A   Mostly Cloudy
10:35 PM 60.8 °F 60.8 °F 100% 29.83 in 10.0 mi Calm Calm - N/A   Overcast
10:55 PM 60.8 °F 60.8 °F 100% 29.83 in 10.0 mi Calm Calm - N/A   Overcast
11:15 PM 60.8 °F 59.0 °F 94% 29.84 in 9.0 mi Calm Calm - N/A   Overcast
11:35 PM 60.8 °F 60.8 °F 100% 29.84 in 7.0 mi Calm Calm - N/A   Overcast
11:55 PM 60.8 °F 60.8 °F 100% 29.84 in 10.0 mi Calm Calm - N/A   Overcast